Flag for Germany Weather past 2 weeks in Plauen, Saxony, Germany

Now
58 °F

Partly sunny.


Feels Like: 59 °F
Forecast: 39 / 71 °F
Wind: 3 mph from North

Location: Hof

Current Time: Aug 27, 2014 at 1:27:53 PM

Latest Report: Aug 27, 2014 at 1:00 PM


Visibility: 19 mi

Pressure: 29.99 "Hg

Humidity: 58%

Dew point: 44 °F

Location of PlauenLocation

Historic Weather in Plauen — Graph

°F

Plauen temperature yesterday

Maximum temperature yesterday: 54 °F (at 2:00 PM)
Minimum temperature yesterday: 50 °F (at 7:00 AM)
Average temperature yesterday: 52 °F

Past Weeks' High & Low Weather Summary

 TemperatureHumidityPressure
High67 °F (Aug 12, 4:00 PM)98% (Aug 26, 5:00 AM)30.14 "Hg (Aug 26, 5:00 AM)
Low41 °F (Aug 25, 6:00 AM)40% (Aug 22, 6:00 PM)29.62 "Hg (Aug 13, 6:00 PM)
Average54 °F78%29.91 "Hg
* Reported Aug 12 12:00 Noon — Aug 27 12:00 Noon, Plauen, Weather by CustomWeather, © 2014

Note: Actual official high and low records may vary slightly from our data, if they occured in-between our weather recording intervals... More about our weather records

Advertising

Plauen weather history for previous 24 hours

 ConditionsComfort  
Time TempWeatherWind HumidityBarometerVisibility
12:00 PM
Aug 27
58 °FScattered clouds.3 mph64%29.98 "Hg16 mi
11:00 AM55 °FPartly sunny.2 mph72%29.97 "Hg11 mi
9:00 AM51 °FFog.5 mph88%29.95 "Hg4 mi
8:00 AM50 °FFog.3 mph92%29.91 "Hg3 mi
7:00 AM51 °FLow clouds.3 mph94%29.88 "Hg2 mi
6:00 AM50 °FLight rain. Low clouds.3 mph97%29.85 "Hg2 mi
5:00 AM50 °FLight rain. Low clouds.2 mph98%29.82 "Hg2 mi
4:00 AM50 °FLight rain. Low clouds.2 mph98%29.82 "Hg2 mi
3:00 AM50 °FLight rain. Low clouds.3 mph98%29.82 "Hg1 mi
2:00 AM50 °FLight rain. Low clouds.2 mph98%29.80 "Hg1 mi
1:00 AM51 °FRain. Low clouds.3 mph97%29.81 "Hg2 mi
12:00 AM51 °FLight rain. Low clouds.2 mph97%29.79 "Hg2 mi
10:00 PM
Aug 26
52 °FDrizzle. Low clouds.2 mph97%29.77 "Hg2 mi
9:00 PM52 °FLow clouds.1 mph96%29.78 "Hg4 mi
8:00 PM52 °FLight freezing rain. Low clouds.2 mph96%29.77 "Hg2 mi
7:00 PM52 °FLight freezing rain. Low clouds.2 mph95%29.76 "Hg2 mi
6:00 PM53 °FLight rain. Low clouds.2 mph91%29.76 "Hg10 mi
4:00 PM54 °FDrizzle. Low clouds.3 mph92%29.75 "Hg9 mi
3:00 PM54 °FLow clouds.3 mph93%29.73 "Hg25 mi
2:00 PM54 °FLight rain. Low clouds.3 mph90%29.72 "Hg8 mi
1:00 PM54 °FRain. Low clouds.3 mph94%29.70 "Hg9 mi
Weather by CustomWeather, © 2014

See weather overviewHow to use our weather pages